Skip Page Navigation
NASA JPL Caltech
NASA Logo - Jet Propulsion Laboratory + View the NASA Portal
+ Near-Earth Object (NEO) Program
Search JPL
JPL Home Earth Solar System Stars & Galaxies Technology
JPL Solar System Dynamics
BODIES ORBITS EPHEMERIDES TOOLS PHYSICAL DATA DISCOVERY FAQ SITE MAP
JPL Small-Body Database Browser
Search: [ help ]  
(2009 AV)
Classification: Apollo [NEO, PHA]          SPK-ID: 3443834
Ephemeris | Orbit Diagram | Orbital Elements | Physical Parameters | Close-Approach Data ]

[ hide orbit diagram ]
Orbit Diagram
Note: Make sure you have Java enabled on your browser to see the applet. This applet is provided as a 3D orbit visualization tool. The applet was implemented using 2-body methods, and hence should not be used for determining accurate long-term trajectories (over several years or decades) or planetary encounter circumstances. For accurate long-term ephemerides, please instead use our Horizons system.
Orbit Viewer

Additional Notes: the orbits shown in the applet are color coded. The planets are white lines, and the asteroid/comet is a blue line. The bright white line indicates the portion of the orbit that is above the ecliptic plane, and the darker portion is below the ecliptic plane. Likewise for the asteroid/comet orbit, the light blue indicates the portion above the ecliptic plane, and the dark blue the portion below the ecliptic plane.

Orbit Viewer applet originally written and kindly provided by Osamu Ajiki (AstroArts), and further modified by Ron Baalke (JPL).


Orbital Elements at Epoch 2456400.5 (2013-Apr-18.0) TDB
Reference: JPL 124 (heliocentric ecliptic J2000)
 Element Value Uncertainty (1-sigma)   Units 
e .07397991236828283 3.6206e-08  
a 1.029744267071936 1.0204e-08 AU
q .9535638764322124 3.5212e-08 AU
i 45.86465421668105 1.2793e-05 deg
node 150.7537714947417 3.4024e-06 deg
peri 322.1040263666605 2.1674e-05 deg
M 78.4170868732834 2.301e-05 deg
tp 2456317.361783274459
(2013-Jan-24.86178327)
2.3918e-05 JED
period 381.6739337634302
1.04
5.6732e-06
1.553e-08
d
yr
n .943213481859455 1.402e-08 deg/d
Q 1.105924657711659 1.0959e-08 AU
  Orbit Determination Parameters
   # obs. used (total)      910  
   # delay obs. used      1  
   # Doppler obs. used      0  
   data-arc span      1535 days (4.20 yr)  
   first obs. used      2009-01-02  
   last obs. used      2013-03-17  
   planetary ephem.      DE405  
   SB-pert. ephem.      SB405-CPV-2  
   condition code      0  
   fit RMS      .38697  
   data source      ORB  
   producer      Otto Matic  
   solution date      2013-Apr-29 11:58:20  

Additional Information
 Earth MOID = .0213442 AU 
 T_jup = 5.671 
[ show covariance matrix ]

Ephemeris | Orbit Diagram | Orbital Elements | Physical Parameters | Close-Approach Data ]

Physical Parameter Table
Parameter Symbol Value Units Sigma Reference Notes
absolute magnitude H 18.121 mag .43101 124 autocmod 2.5c

[ show close-approach data ]
Ephemeris | Orbit Diagram | Orbital Elements | Physical Parameters | Close-Approach Data ]
ABOUT SSD CREDITS/AWARDS PRIVACY/COPYRIGHT GLOSSARY LINKS
FirstGov 2013-May-21 19:43 UT
(server date/time)  
NASA Home Page
Site Manager:   Donald K. Yeomans
Webmaster  Alan B. Chamberlin